Wind_Speed
5 4 3 2 2 3 3 2 1 0 1 1 1 3 5 5 6 7 8 6 4 4 6 9 11 12 12 12 10 10 10 10 11 11 11 10 9 7 5 4 4 4 5 6 8 10 14 18 21
5 3 3 3 3 4 3 1 2 2 2 2 1 3 6 6 5 7 8 6 4 3 4 7 10 11 11 10 10 10 10 11 12 12 12 11 10 8 6 5 5 5 5 5 6 7 10 15 19
5 4 3 3 4 4 2 2 3 5 5 4 4 4 6 6 4 5 6 5 4 4 3 6 8 9 9 9 10 10 10 11 11 12 13 13 12 10 8 7 6 6 6 5 5 5 6 12 17
5 5 5 5 4 3 2 3 4 6 6 6 6 7 7 7 5 3 5 4 4 4 3 5 7 8 8 8 9 10 10 11 11 12 13 13 13 12 10 9 8 7 6 6 5 3 3 8 13
7 6 7 7 7 3 1 2 4 5 6 6 7 8 9 8 6 3 5 4 4 4 3 4 5 6 6 7 8 8 10 11 11 12 13 13 13 13 12 11 9 8 7 6 5 3 2 5 10
9 8 9 10 8 4 1 1 3 4 5 6 7 8 9 9 7 4 4 4 4 5 4 4 4 5 5 6 7 8 9 11 12 12 13 13 13 13 13 12 11 9 8 7 5 4 3 5 8
12 9 9 9 9 5 1 2 5 6 6 6 7 8 8 8 7 4 3 4 5 6 5 4 4 4 4 6 7 8 10 11 12 13 13 13 13 13 13 13 11 9 8 7 6 6 5 5 7
15 11 7 7 7 6 3 2 4 6 8 8 8 8 9 8 7 5 3 3 5 6 6 6 5 5 5 6 7 8 9 11 12 13 14 13 12 12 13 13 11 10 9 8 7 7 8 8 8
17 15 10 8 8 7 5 4 4 4 6 8 9 9 9 9 8 7 5 4 6 7 8 8 7 6 7 7 8 9 9 10 11 12 13 13 12 12 12 12 11 10 9 9 8 8 9 10 10
18 17 14 12 11 7 6 6 6 5 4 6 8 9 9 9 9 8 7 6 7 8 9 10 10 9 9 9 9 9 9 10 10 11 12 13 13 12 12 12 11 10 9 9 8 8 9 11 12
19 18 16 13 8 7 8 8 9 10 8 7 8 9 10 10 10 9 9 9 9 11 12 12 13 12 11 12 12 11 10 10 9 10 11 12 12 12 12 12 11 10 9 8 8 7 8 10 13
20 20 19 17 15 12 11 11 12 13 14 12 11 11 12 12 11 11 11 12 12 13 15 16 16 15 15 14 14 13 12 10 9 8 9 11 11 12 12 13 12 10 9 8 8 8 8 10 13
21 21 20 19 17 17 16 16 15 16 19 17 16 15 14 14 13 12 12 13 15 16 18 19 19 18 17 16 15 15 14 11 9 8 8 9 10 10 11 13 13 11 10 8 8 9 10 11 12
22 22 22 22 22 21 21 20 20 20 23 22 21 20 19 18 17 15 14 14 16 17 19 20 20 20 19 17 16 15 14 13 11 9 8 8 9 10 11 12 13 12 11 9 9 10 11 12 13
23 22 23 26 26 26 26 23 24 25 27 27 26 24 24 22 21 20 18 16 16 16 17 18 18 18 18 16 15 14 14 14 13 11 9 8 8 9 11 12 13 13 12 11 11 12 12 13 14
25 25 26 28 28 29 29 27 27 28 29 30 29 28 27 26 25 24 21 18 16 16 16 16 15 16 15 14 14 14 15 14 14 13 12 11 9 9 10 11 12 13 13 13 12 13 14 14 15
29 29 29 30 31 31 32 31 31 32 32 32 32 31 29 28 27 26 24 20 17 15 15 14 14 14 14 13 13 15 16 16 16 16 14 14 12 11 11 12 13 14 14 15 14 13 15 16 17
32 33 34 34 35 36 36 36 35 35 35 34 33 32 30 29 28 27 25 22 19 17 16 15 16 16 16 16 16 17 18 18 18 16 15 14 14 14 13 13 14 14 15 16 16 15 15 17 18
34 35 36 37 38 40 39 39 38 38 37 35 34 34 31 31 30 28 26 24 22 20 18 18 18 18 19 19 19 19 19 19 18 18 17 16 15 15 16 16 16 16 17 18 18 17 17 17 19
35 37 38 39 40 42 42 40 38 38 38 35 35 35 33 32 30 29 27 26 24 22 22 22 21 21 20 21 21 20 20 19 19 18 18 17 17 17 18 18 19 19 20 21 21 20 19 18 19
34 37 39 40 41 43 44 42 38 37 37 36 34 33 31 30 30 29 28 27 25 23 23 24 25 24 23 23 22 21 20 18 18 18 18 18 19 19 20 21 21 22 23 23 23 22 20 19 19
33 35 38 40 41 41 41 42 36 36 35 35 33 31 30 29 29 29 29 27 26 26 25 26 27 26 25 24 22 21 19 17 17 17 18 20 21 22 22 23 24 24 24 24 25 24 22 20 20
31 32 34 36 37 38 36 38 34 34 34 33 32 30 29 27 28 29 29 29 28 27 28 28 28 26 25 24 22 21 19 18 18 19 20 22 23 24 24 24 24 24 24 25 26 26 25 23 21
31 32 33 33 33 32 30 31 30 30 31 30 31 30 28 28 29 30 31 31 30 29 30 30 26 24 23 23 21 20 20 20 20 22 23 24 24 25 25 25 24 24 24 25 26 27 27 24 22
34 35 36 34 30 28 25 26 26 26 26 27 27 28 27 29 30 31 31 30 29 30 31 29 24 22 21 20 19 19 20 21 22 23 24 24 25 25 25 24 23 23 23 24 25 25 26 24 23
37 36 36 35 32 26 24 24 24 22 22 23 23 24 26 27 29 29 29 29 30 31 30 26 21 18 18 17 17 18 20 22 23 23 24 24 24 23 24 23 22 22 22 22 22 22 23 24 23
40 38 36 36 33 28 24 23 24 23 20 21 21 21 22 24 25 27 28 27 28 28 23 18 17 16 15 16 18 20 21 22 23 23 23 23 23 23 22 22 21 20 19 19 18 18 19 21 22
42 38 35 34 32 28 24 23 23 22 20 19 20 20 20 22 25 26 25 26 26 23 19 16 14 13 14 17 19 21 22 23 22 22 22 21 21 21 20 20 20 19 18 17 16 16 16 17 19
33 32 32 31 29 27 24 22 20 18 16 16 17 20 21 22 24 26 25 25 23 18 15 14 13 14 16 19 20 22 22 21 21 21 20 19 20 20 19 19 19 19 19 17 17 16 17 17 18
21 22 25 27 28 25 23 20 14 14 14 14 14 17 19 21 22 22 21 16 14 10 9 11 13 15 18 20 21 22 21 20 20 20 20 19 19 20 20 19 19 19 20 19 18 18 17 17 17
Wind_Direction
160 149 143 164 180 196 201 204 177 228 121 45 291 291 292 302 301 284 287 291 288 321 352 3 8 12 15 16 15 13 10 7 4 2 359 356 353 350 345 335 323 300 274 262 258 254 243 233 228
177 175 173 197 214 199 187 155 58 27 38 44 356 321 313 318 319 295 284 281 265 279 334 357 4 8 12 15 13 9 6 4 0 359 359 358 355 348 338 326 313 303 294 284 277 265 241 227 222
194 190 192 219 224 201 163 83 50 37 24 14 12 359 333 332 345 306 286 276 256 257 310 349 359 6 12 17 16 10 5 3 1 358 359 0 357 350 338 325 312 304 302 300 292 281 240 221 217
201 203 212 223 229 202 137 77 60 43 19 7 12 9 354 340 341 306 282 264 247 254 295 336 352 3 13 18 17 13 9 5 2 0 1 2 0 353 342 329 313 304 303 302 294 286 240 216 216
196 206 218 227 232 211 141 61 44 38 17 4 8 8 359 350 349 314 273 258 243 251 275 319 343 0 12 15 13 12 11 9 7 6 5 2 359 355 347 334 319 305 300 298 292 279 244 212 212
196 204 217 219 215 210 171 19 12 22 15 356 358 6 358 354 355 337 275 253 236 241 257 291 327 351 1 6 6 7 9 10 12 12 11 6 1 357 349 338 324 309 298 292 283 263 229 206 209
195 200 209 213 208 196 189 355 1 2 9 358 356 4 356 355 358 344 291 251 230 235 248 267 294 321 334 349 359 2 5 8 12 13 11 9 5 358 351 341 329 313 298 288 273 255 231 207 200
198 196 194 206 209 203 210 306 344 358 357 360 357 353 347 349 356 351 315 264 232 231 240 251 268 286 302 319 336 347 354 1 8 11 12 11 8 0 354 347 335 319 299 286 272 254 237 222 209
206 209 211 228 228 224 227 253 291 332 344 350 352 347 343 346 350 351 331 288 249 235 237 248 259 271 285 297 310 324 337 350 1 8 11 13 11 3 358 354 343 328 307 289 273 257 240 231 222
214 220 228 241 231 235 256 263 274 285 317 335 339 341 341 343 346 344 330 302 270 251 243 246 254 265 275 286 298 309 321 334 347 360 7 11 11 3 0 359 352 339 319 298 279 264 247 236 231
221 228 234 246 258 257 268 277 285 291 293 302 317 330 333 335 337 333 323 304 282 267 259 257 259 265 274 283 290 301 308 317 333 348 359 5 8 1 359 360 358 349 332 309 289 272 254 240 235
230 237 243 255 272 278 275 276 282 288 289 294 304 314 320 323 328 325 313 300 287 273 265 263 264 269 275 282 288 293 299 305 317 332 346 356 2 360 356 356 356 353 341 319 297 279 260 246 240
236 241 250 261 269 272 272 274 278 284 284 288 294 298 304 306 308 309 302 289 280 274 268 265 265 269 273 278 282 285 290 297 303 310 328 341 350 354 350 348 349 351 343 325 298 278 267 257 249
243 244 249 255 260 263 267 272 275 277 280 283 286 290 293 295 296 297 294 285 275 269 267 267 266 267 269 273 276 278 285 290 294 296 306 321 332 340 340 338 340 344 340 325 302 279 267 262 257
249 250 251 255 259 263 267 270 273 275 279 282 284 286 288 290 292 291 289 286 279 270 266 267 267 267 268 271 272 274 280 286 291 291 288 292 304 321 328 328 328 330 330 324 308 287 272 261 256
255 254 253 256 259 263 266 267 270 274 277 279 280 282 284 286 287 288 288 286 284 278 270 269 269 267 267 269 272 276 280 284 285 286 284 280 281 294 311 313 312 314 315 316 309 293 278 266 257
256 256 255 257 260 263 265 267 268 272 274 276 278 278 279 282 284 284 285 285 285 284 277 273 271 268 267 267 271 277 284 286 284 282 282 282 277 284 295 299 299 300 301 303 304 294 281 272 264
258 259 259 260 262 263 264 266 267 272 273 274 276 276 277 279 281 280 282 284 284 284 279 277 273 271 269 268 270 274 280 283 284 283 286 282 282 287 289 289 290 289 289 293 295 291 283 273 267
263 264 265 265 265 265 266 267 268 272 274 272 273 275 277 277 276 275 277 279 281 282 280 277 274 272 270 271 272 273 277 280 279 282 285 282 281 285 288 287 284 283 283 284 286 285 281 274 263
266 267 268 267 267 268 267 268 271 273 273 270 272 273 275 272 270 270 271 272 276 279 279 278 275 273 274 275 276 277 279 279 278 280 283 285 284 286 287 286 283 279 278 278 279 279 277 273 262
268 268 268 268 268 269 270 269 269 269 269 269 271 270 270 269 267 266 266 267 270 272 274 276 275 275 276 277 279 279 279 277 277 279 282 285 286 286 286 283 280 276 273 272 271 272 272 268 260
269 269 269 269 269 268 268 268 264 264 263 264 265 266 268 266 264 263 262 263 265 265 268 270 273 273 275 277 279 279 278 276 277 280 283 286 287 286 284 281 280 277 273 268 266 267 266 262 259
278 277 275 274 273 272 270 270 265 260 258 258 259 261 264 260 259 259 257 256 257 260 261 260 261 264 268 273 277 277 278 279 280 283 285 286 287 286 283 280 278 276 271 265 262 260 258 257 255
291 289 287 284 283 280 274 270 266 259 256 255 255 256 255 252 252 252 249 247 249 251 251 251 251 255 262 268 272 273 277 281 284 286 288 288 287 285 283 281 277 273 268 263 260 258 256 255 250
294 292 291 288 285 283 276 269 264 261 256 252 251 249 247 245 243 244 242 241 242 244 245 245 246 252 256 262 267 271 276 280 284 287 288 287 285 282 281 278 275 271 266 263 260 256 254 251 248
289 286 284 284 283 279 272 267 263 259 252 249 246 240 237 236 236 235 236 237 238 240 240 241 246 249 253 259 266 272 278 283 286 287 287 286 284 281 279 275 272 269 265 264 261 257 252 250 247
283 278 276 273 274 272 268 266 262 260 254 244 237 232 230 229 232 231 230 230 232 235 236 234 240 247 254 262 269 275 280 283 285 286 286 284 282 280 277 273 269 266 264 262 259 255 251 248 247
278 272 265 262 261 263 265 263 261 258 257 244 235 234 232 233 233 230 226 225 223 223 224 230 239 248 257 266 271 277 282 285 287 288 286 284 283 280 276 272 268 264 262 261 258 254 250 249 248
276 266 257 252 251 253 257 260 259 257 257 256 245 239 241 237 235 233 228 220 213 212 220 231 240 252 262 269 274 280 285 287 288 288 287 287 284 281 277 274 269 263 260 258 257 254 251 251 250
281 261 248 245 244 248 252 253 258 262 264 266 260 249 248 240 238 232 230 222 202 194 212 227 245 259 268 274 279 282 284 286 287 287 288 287 285 281 277 274 271 266 260 256 255 255 253 252 251
Height
5897 5897 5897 5898 5899 5898 5897 5897 5896 5896 5897 5897 5896 5895 5895 5896 5896 5897 5894 5893 5894 5895 5895 5894 5893 5892 5891 5890 5889 5888 5887 5886 5885 5884 5883 5882 5881 5880 5879 5878 5877 5876 5876 5875 5875 5874 5874 5874 5876
5896 5897 5898 5898 5898 5897 5897 5896 5896 5896 5897 5897 5896 5895 5894 5895 5894 5893 5891 5892 5893 5894 5894 5894 5893 5893 5891 5890 5889 5888 5887 5886 5886 5884 5883 5882 5881 5879 5878 5878 5877 5876 5875 5874 5873 5872 5871 5871 5873
5896 5897 5898 5898 5897 5897 5897 5897 5896 5896 5896 5896 5896 5895 5894 5894 5894 5892 5890 5891 5892 5893 5894 5894 5893 5893 5892 5891 5890 5889 5888 5887 5886 5884 5883 5882 5880 5879 5878 5877 5876 5875 5874 5872 5871 5870 5869 5870 5872
5897 5897 5897 5897 5897 5897 5896 5897 5897 5897 5896 5896 5895 5895 5894 5893 5893 5891 5889 5890 5891 5892 5893 5893 5893 5893 5892 5892 5891 5889 5888 5887 5885 5884 5882 5881 5879 5878 5876 5875 5874 5874 5873 5872 5871 5870 5869 5869 5871
5896 5897 5897 5896 5896 5896 5896 5896 5897 5898 5897 5895 5895 5894 5893 5892 5891 5891 5889 5889 5890 5891 5892 5893 5893 5892 5892 5892 5891 5889 5888 5886 5885 5883 5882 5880 5879 5877 5875 5874 5873 5872 5872 5871 5870 5870 5869 5869 5870
5896 5896 5896 5896 5896 5896 5896 5896 5897 5898 5897 5895 5895 5894 5892 5891 5890 5890 5888 5889 5890 5890 5891 5892 5892 5892 5892 5891 5891 5889 5888 5886 5885 5883 5881 5879 5878 5876 5875 5873 5872 5871 5871 5870 5870 5870 5870 5870 5870
5895 5895 5894 5894 5895 5895 5896 5895 5896 5896 5896 5895 5894 5893 5892 5891 5890 5889 5888 5888 5889 5889 5890 5891 5891 5891 5891 5891 5890 5889 5887 5886 5884 5882 5880 5878 5877 5875 5874 5872 5871 5870 5869 5869 5869 5869 5869 5870 5870
5893 5895 5894 5893 5894 5894 5895 5895 5895 5895 5895 5895 5893 5893 5892 5891 5890 5889 5887 5887 5888 5888 5889 5889 5890 5890 5890 5890 5889 5888 5887 5885 5883 5881 5879 5877 5876 5874 5873 5871 5869 5868 5868 5868 5868 5868 5869 5869 5870
5893 5895 5893 5893 5892 5893 5894 5895 5895 5895 5894 5893 5893 5893 5892 5891 5889 5888 5888 5887 5887 5888 5888 5888 5888 5889 5889 5889 5888 5887 5886 5884 5882 5880 5878 5876 5875 5873 5872 5870 5868 5867 5866 5866 5866 5867 5868 5869 5869
5892 5893 5893 5892 5891 5893 5893 5894 5894 5895 5895 5894 5893 5892 5891 5890 5889 5888 5888 5887 5887 5887 5887 5887 5887 5888 5887 5887 5886 5886 5885 5883 5881 5879 5877 5875 5874 5872 5870 5869 5867 5866 5865 5864 5864 5865 5866 5867 5868
5891 5891 5892 5891 5891 5892 5892 5892 5892 5892 5893 5894 5893 5892 5891 5890 5889 5888 5888 5887 5887 5886 5886 5885 5886 5886 5886 5885 5884 5884 5883 5882 5880 5878 5876 5874 5872 5871 5869 5868 5866 5865 5864 5863 5863 5864 5864 5865 5866
5890 5890 5890 5890 5891 5891 5890 5890 5890 5890 5890 5891 5891 5890 5890 5889 5888 5887 5887 5886 5886 5886 5885 5884 5884 5883 5883 5883 5882 5881 5881 5879 5878 5876 5874 5872 5871 5869 5868 5866 5865 5864 5863 5862 5862 5863 5863 5863 5864
5888 5888 5888 5889 5888 5888 5888 5888 5888 5887 5886 5887 5887 5888 5887 5887 5887 5886 5886 5885 5884 5883 5883 5882 5882 5881 5880 5880 5879 5878 5877 5876 5875 5874 5872 5871 5869 5868 5867 5865 5864 5862 5861 5860 5860 5861 5861 5861 5862
5885 5886 5886 5886 5885 5885 5885 5885 5885 5883 5882 5882 5883 5883 5883 5883 5883 5884 5884 5882 5882 5881 5880 5879 5879 5878 5877 5876 5876 5875 5874 5873 5872 5871 5871 5869 5868 5867 5866 5864 5862 5861 5860 5859 5859 5858 5859 5859 5859
5881 5883 5883 5881 5881 5881 5881 5883 5881 5879 5878 5878 5878 5878 5878 5878 5878 5879 5880 5879 5878 5877 5876 5875 5875 5874 5873 5872 5871 5871 5870 5869 5869 5868 5868 5867 5866 5864 5863 5862 5860 5859 5857 5857 5856 5856 5856 5856 5856
5877 5878 5878 5877 5877 5876 5878 5879 5877 5876 5874 5873 5873 5873 5873 5872 5872 5872 5873 5874 5873 5872 5872 5871 5871 5870 5869 5868 5867 5867 5866 5865 5865 5865 5864 5864 5863 5862 5861 5860 5858 5856 5855 5854 5853 5852 5852 5853 5853
5870 5871 5871 5871 5871 5871 5871 5872 5872 5870 5870 5869 5867 5867 5867 5867 5866 5866 5866 5868 5868 5868 5867 5867 5867 5867 5866 5865 5864 5863 5862 5861 5861 5861 5860 5860 5859 5858 5858 5857 5855 5854 5852 5851 5850 5849 5849 5848 5849
5864 5864 5864 5864 5864 5863 5863 5864 5865 5864 5863 5863 5861 5861 5861 5860 5860 5859 5860 5861 5862 5863 5863 5863 5863 5862 5862 5861 5861 5859 5858 5858 5857 5856 5856 5855 5855 5854 5854 5852 5851 5850 5848 5847 5846 5846 5845 5844 5844
5857 5856 5856 5856 5855 5854 5854 5855 5856 5855 5855 5855 5855 5854 5854 5854 5853 5853 5853 5854 5856 5857 5857 5858 5858 5857 5857 5857 5856 5855 5855 5854 5853 5852 5851 5851 5850 5849 5848 5847 5846 5845 5844 5843 5842 5841 5841 5841 5840
5848 5847 5847 5846 5845 5844 5845 5846 5848 5847 5846 5846 5846 5847 5847 5847 5847 5847 5847 5848 5849 5851 5851 5852 5852 5852 5852 5852 5851 5851 5850 5850 5849 5848 5847 5846 5845 5844 5843 5841 5841 5840 5839 5838 5838 5837 5836 5836 5836
5840 5838 5837 5836 5835 5834 5833 5836 5839 5837 5836 5836 5837 5837 5838 5839 5840 5840 5840 5842 5843 5845 5845 5846 5846 5846 5846 5846 5846 5845 5844 5844 5844 5843 5842 5841 5840 5838 5837 5836 5834 5834 5834 5833 5832 5831 5831 5831 5831
5831 5829 5827 5825 5824 5824 5823 5823 5829 5826 5825 5825 5826 5828 5830 5831 5832 5833 5833 5835 5836 5838 5839 5839 5839 5839 5839 5839 5840 5840 5840 5840 5839 5838 5837 5836 5834 5832 5831 5830 5829 5828 5828 5827 5826 5826 5825 5826 5826
5824 5821 5819 5816 5814 5814 5813 5812 5816 5814 5814 5814 5816 5818 5822 5824 5825 5826 5827 5828 5830 5831 5832 5832 5832 5833 5834 5834 5834 5835 5835 5834 5834 5833 5831 5830 5828 5826 5825 5824 5823 5822 5821 5820 5820 5819 5819 5820 5820
5815 5813 5810 5808 5806 5806 5805 5804 5804 5803 5804 5806 5807 5810 5814 5816 5818 5819 5820 5821 5822 5824 5824 5825 5825 5827 5828 5829 5830 5830 5830 5829 5828 5826 5825 5823 5821 5820 5818 5817 5816 5815 5814 5814 5813 5813 5813 5813 5814
5806 5803 5800 5799 5798 5799 5798 5796 5796 5795 5796 5798 5799 5802 5805 5807 5809 5811 5812 5813 5815 5816 5817 5817 5819 5821 5823 5824 5825 5825 5825 5824 5822 5820 5819 5817 5815 5813 5812 5811 5810 5809 5807 5807 5807 5806 5806 5807 5808
5796 5794 5792 5790 5790 5791 5791 5790 5790 5789 5789 5791 5792 5794 5796 5799 5801 5802 5804 5805 5807 5808 5809 5811 5814 5817 5819 5820 5820 5820 5819 5818 5816 5814 5813 5811 5809 5807 5805 5804 5803 5802 5801 5800 5800 5800 5800 5801 5803
5783 5782 5781 5781 5781 5782 5784 5784 5783 5783 5783 5784 5786 5788 5790 5792 5794 5795 5795 5797 5799 5801 5803 5806 5810 5813 5815 5815 5815 5814 5813 5812 5810 5809 5807 5805 5803 5801 5800 5798 5797 5796 5795 5794 5794 5794 5795 5796 5797
5768 5768 5770 5771 5772 5775 5777 5777 5777 5778 5778 5779 5780 5782 5784 5786 5788 5789 5788 5789 5791 5795 5799 5803 5807 5809 5810 5810 5809 5808 5807 5806 5804 5802 5800 5798 5796 5795 5793 5792 5791 5791 5790 5789 5789 5789 5790 5791 5792
5756 5756 5758 5761 5764 5768 5770 5774 5772 5773 5774 5774 5775 5777 5779 5781 5782 5783 5783 5784 5787 5793 5797 5801 5803 5805 5804 5804 5803 5802 5801 5799 5798 5796 5794 5792 5790 5789 5787 5786 5786 5785 5785 5785 5785 5785 5786 5786 5787
5745 5746 5749 5754 5758 5762 5765 5770 5767 5769 5770 5770 5771 5773 5774 5776 5777 5779 5781 5784 5787 5792 5795 5797 5799 5799 5798 5797 5796 5795 5794 5793 5791 5790 5788 5786 5785 5783 5782 5781 5780 5780 5780 5780 5780 5780 5781 5782 5782